Theta_e
307 307 308 308 309 308 308 308 308 308 308 309 310 311 311 312 314 320 324 321 321 318 320 322 321 323 323 326 331 338 338 339 341 343 348 347 347 344 341 342 341 340 341 338 335
307 308 309 309 310 310 310 310 310 310 310 311 311 311 311 313 322 324 321 321 320 319 323 323 324 323 326 326 332 339 339 344 342 343 347 346 345 345 344 343 341 339 334 333 333
308 308 309 309 309 309 310 310 311 311 311 311 311 311 312 316 328 326 320 322 320 319 321 320 322 325 330 330 338 342 346 344 344 344 344 345 344 341 343 343 340 339 335 330 329
308 309 309 309 310 310 310 311 311 311 311 311 311 312 315 325 322 325 319 322 321 322 321 322 324 331 334 339 341 347 345 346 346 345 345 346 342 343 342 340 336 333 330 329 327
308 310 310 310 311 311 311 311 312 312 312 312 312 314 321 327 323 321 321 322 322 321 321 327 329 335 342 343 345 347 347 346 344 343 343 341 342 342 341 336 333 330 328 327 325
309 310 311 310 310 310 311 311 311 312 312 312 313 315 325 322 323 323 323 322 321 323 327 331 336 342 344 346 347 345 346 345 343 342 341 342 340 338 339 335 334 333 332 330 326
309 311 312 310 310 310 310 311 312 312 311 312 313 318 326 323 324 324 320 321 321 327 336 336 339 342 344 346 343 344 347 345 344 342 342 339 341 341 338 335 336 334 331 329 325
310 311 312 311 310 311 311 312 313 313 313 313 315 324 325 321 324 324 322 322 322 323 334 339 340 344 346 343 345 347 347 350 345 342 340 341 347 338 336 336 335 333 331 329 326
310 311 312 311 311 311 312 312 313 314 315 315 324 326 326 324 326 326 323 323 322 321 327 330 339 343 344 346 347 346 342 347 349 343 342 342 345 338 334 335 334 334 332 330 328
311 312 312 312 312 312 312 312 317 320 321 322 323 329 326 325 325 323 323 323 323 323 325 326 336 339 340 338 333 334 341 343 346 345 343 343 343 337 335 336 334 334 332 330 328
312 312 313 313 312 312 313 322 329 331 326 329 329 328 326 325 323 322 323 324 324 325 325 325 326 329 331 333 333 331 335 340 344 342 344 343 341 337 337 336 335 333 332 331 328
313 313 313 313 313 314 317 326 322 321 327 327 326 327 326 325 322 322 322 323 323 323 324 325 325 327 327 334 333 335 341 345 342 340 342 341 340 337 338 335 334 334 332 330 329
313 313 313 314 314 318 322 323 319 319 329 327 328 328 326 326 325 324 324 325 327 328 327 327 329 329 331 333 337 338 338 344 342 340 339 341 341 341 337 335 333 332 331 329 328
314 313 314 314 320 318 323 318 317 317 327 326 327 326 327 327 326 324 323 325 328 331 331 332 330 335 337 335 335 337 335 338 341 342 341 341 339 342 339 337 334 333 331 328 329
313 312 314 314 318 321 318 317 318 325 326 327 328 324 324 326 327 328 327 329 333 332 332 333 334 333 333 334 334 339 336 337 339 340 342 341 342 344 338 338 337 335 330 328 327
312 311 312 315 315 318 315 321 327 332 326 327 328 325 327 330 331 331 332 332 332 333 333 333 331 330 335 334 335 336 337 338 338 337 339 338 339 341 341 338 336 332 327 327 326
310 311 311 313 322 314 318 329 334 332 332 327 327 328 330 333 333 334 335 336 335 336 336 334 333 334 334 337 335 334 339 338 337 339 335 338 337 342 336 334 331 330 327 327 327
310 310 311 312 317 318 326 332 336 334 334 333 330 329 332 334 334 334 334 334 333 335 334 335 336 332 330 331 332 335 335 332 333 330 329 337 338 342 335 333 330 328 328 327 326
311 312 321 324 320 322 329 336 337 336 334 333 330 328 333 334 335 335 334 335 332 333 338 335 335 329 328 329 330 332 332 330 331 331 331 335 337 336 334 332 331 330 327 327 324
324 324 325 319 322 328 332 331 335 332 331 332 335 335 335 336 336 336 335 331 330 331 332 332 333 331 330 328 328 328 328 328 330 332 333 334 333 335 332 330 330 330 329 326 323
329 325 327 323 323 328 333 333 331 327 330 333 334 334 334 334 335 336 334 331 330 329 329 331 329 330 328 330 329 328 329 330 331 329 330 326 336 329 330 328 326 325 326 326 322
332 324 327 323 328 329 333 331 323 329 331 331 333 334 334 335 334 334 334 332 331 330 330 333 332 330 329 327 327 328 329 329 330 331 326 324 334 328 329 328 328 326 327 324 321
330 327 327 326 330 333 331 330 331 332 333 332 331 331 331 332 334 334 334 331 332 334 336 334 335 330 331 329 328 328 326 327 328 328 327 325 330 325 325 326 326 326 324 322 318
329 326 329 330 331 332 333 332 332 330 331 332 332 332 331 330 331 333 333 332 332 329 328 333 333 332 333 332 329 329 328 328 327 327 325 326 326 326 324 323 323 322 321 319 317
333 334 333 331 333 333 333 331 331 331 330 331 331 332 330 330 330 330 330 333 331 329 330 333 333 329 327 326 327 329 329 328 328 328 328 326 326 323 321 320 320 320 319 318 317
333 332 332 334 332 333 332 335 333 332 332 331 332 331 331 332 330 329 328 333 337 333 334 332 332 331 334 330 330 330 327 327 325 326 326 325 324 320 320 319 319 318 318 317 317
332 330 334 330 335 333 335 333 332 331 330 329 329 328 330 331 332 334 334 335 336 337 335 333 333 333 334 332 328 333 324 324 323 324 325 324 319 317 317 318 318 318 318 317 316
Wind_Speed
9 8 8 7 6 7 7 7 7 6 7 7 8 11 14 15 14 0 5 9 6 12 10 11 7 5 5 2 1 4 3 9 8 4 9 13 9 10 10 13 10 7 9 12 13
9 7 6 7 6 6 6 6 6 6 7 8 9 12 14 16 2 5 4 7 12 12 11 11 8 8 4 3 2 5 7 8 7 8 12 9 7 8 6 12 10 12 14 15 13
8 7 6 6 6 6 6 5 5 6 7 8 10 12 14 8 7 9 4 8 12 11 4 4 5 6 5 4 5 5 10 10 9 13 12 14 11 9 10 9 9 9 10 14 16
9 7 6 5 5 5 4 4 6 6 7 8 10 12 12 2 4 4 2 13 11 7 6 7 9 7 6 5 5 10 9 11 11 10 11 11 12 14 13 8 11 12 12 13 15
9 6 5 4 4 4 5 4 6 6 7 8 10 12 3 6 11 3 8 13 10 7 8 9 11 9 7 12 17 16 13 14 11 12 13 14 12 12 14 11 13 13 13 13 13
6 3 3 4 4 4 5 5 6 6 7 8 10 12 5 8 4 6 9 9 3 4 6 11 4 14 11 6 2 13 17 17 15 15 16 17 11 5 8 10 10 10 11 11 12
5 4 4 6 5 5 6 5 6 5 6 7 9 8 6 8 4 5 7 4 5 5 11 8 13 2 10 16 18 20 19 14 10 7 13 15 11 7 9 9 10 10 9 9 10
6 6 5 6 4 5 6 5 5 4 5 7 7 4 3 3 2 1 5 4 6 9 16 15 14 12 8 19 12 8 12 8 10 11 7 7 7 8 7 9 10 9 8 8 9
7 6 5 5 4 5 6 7 7 5 5 4 2 4 8 1 4 4 4 5 9 8 7 7 6 10 17 13 10 10 5 7 9 9 5 10 9 11 6 5 7 9 10 7 8
7 5 4 4 4 6 8 8 4 2 1 1 3 5 5 5 5 5 5 3 3 10 9 5 4 6 10 10 7 4 5 7 8 9 7 4 11 10 10 10 8 9 9 8 7
6 4 4 4 6 7 7 2 5 5 6 5 3 4 6 6 4 8 6 6 4 6 9 9 8 11 10 12 7 7 5 4 7 2 6 4 7 9 9 10 12 9 8 7 6
5 3 4 4 6 7 1 2 5 5 3 3 1 4 4 3 9 10 8 9 10 14 8 8 13 3 6 2 4 5 7 7 3 4 5 6 7 9 10 9 9 9 8 7 8
4 4 4 4 8 1 1 2 2 6 5 4 1 1 4 7 6 13 11 7 7 13 11 12 8 4 4 8 8 7 6 8 2 8 5 9 7 10 13 9 9 8 7 5 4
3 5 3 4 1 1 1 4 7 4 6 4 5 4 5 4 4 0 6 5 6 5 6 3 6 8 10 7 4 6 2 6 9 12 6 14 3 12 12 12 11 9 8 7 6
3 5 5 3 5 2 4 9 3 4 5 5 6 3 3 1 5 5 1 5 3 1 6 8 8 6 1 5 6 7 5 3 7 8 4 13 6 6 13 12 10 9 6 6 5
4 6 5 4 4 3 9 1 4 6 4 7 1 3 6 4 4 4 3 5 1 3 7 8 4 6 5 6 10 11 7 6 7 7 11 5 4 4 6 8 8 12 10 9 9
5 7 7 3 2 6 7 5 5 1 3 6 4 3 7 4 5 4 7 7 3 4 7 7 5 9 7 7 4 1 7 7 8 6 3 6 3 6 5 6 12 13 11 9 9
6 6 5 6 9 8 5 6 2 3 3 3 2 4 3 3 5 5 3 5 10 7 2 4 7 3 2 7 10 5 7 9 14 11 11 6 4 4 6 6 6 9 10 9 8
5 4 2 2 1 3 7 3 4 4 3 2 6 6 6 5 1 3 9 6 8 11 6 4 3 2 7 2 5 4 5 8 10 12 8 6 7 7 5 5 5 6 6 6 6
3 5 4 1 4 6 4 4 3 4 4 3 1 3 3 3 2 1 3 7 3 7 4 5 6 0 2 5 7 8 5 8 5 6 7 3 8 7 7 2 4 6 6 4 5
3 4 2 1 3 5 2 5 5 7 3 5 10 10 7 4 5 3 5 9 6 5 6 5 3 4 5 7 9 4 7 4 3 4 5 4 6 8 8 7 9 9 5 3 2
2 4 1 2 4 1 5 3 1 4 8 7 9 9 8 6 5 4 7 6 7 5 4 5 4 5 8 5 8 11 7 6 8 4 4 4 6 7 9 10 10 8 4 3 3
1 4 1 3 4 6 5 7 7 4 9 5 6 8 6 4 1 4 4 6 9 7 6 5 4 7 9 8 5 7 7 4 2 2 7 7 5 6 8 8 9 7 4 3 1
3 4 3 1 1 7 12 8 8 8 10 7 6 5 5 6 4 3 6 6 8 8 3 3 4 4 8 7 8 9 13 14 7 5 5 8 4 11 12 11 8 6 4 2 1
2 2 3 5 5 6 4 5 8 7 4 4 6 7 6 3 2 4 3 11 8 3 3 4 6 12 15 15 18 17 18 18 15 10 8 6 8 11 11 11 9 6 2 2 3
1 3 3 4 3 7 2 3 9 8 4 6 9 9 8 6 6 5 3 6 6 5 4 2 6 13 14 15 18 13 11 6 4 8 6 6 8 9 7 7 7 5 4 5 6
2 1 1 0 4 5 3 6 9 8 8 8 5 6 11 11 14 14 15 12 9 5 5 2 8 7 3 12 10 2 13 10 6 8 10 8 10 11 10 8 7 6 5 6 7
Wind_Direction
338 333 339 323 321 306 302 303 304 312 318 325 330 328 321 328 328 50 163 114 161 161 156 154 166 162 197 144 350 258 130 75 69 122 131 147 126 79 71 72 53 49 73 94 103
328 338 337 327 321 309 301 301 311 315 317 327 331 326 326 329 285 192 111 149 155 158 163 178 175 179 151 144 62 327 69 58 53 100 132 140 111 120 109 96 88 85 79 83 88
333 327 341 320 311 302 294 306 311 314 323 332 328 327 329 328 234 90 147 167 159 164 208 221 165 196 140 117 31 17 92 96 98 101 111 108 98 94 116 67 71 92 87 84 80
331 331 338 312 305 290 306 315 323 324 325 336 336 332 332 247 120 77 151 177 171 192 194 181 183 175 130 103 93 110 88 106 112 116 124 107 112 79 70 91 94 90 95 91 81
317 343 310 289 280 305 313 331 323 321 332 340 335 337 324 197 76 72 119 162 176 191 215 198 184 149 109 108 96 107 108 106 116 116 109 106 81 94 95 105 102 100 97 95 93
319 318 295 285 301 322 321 323 315 319 334 334 329 342 278 117 93 133 146 154 179 220 151 180 145 100 94 95 356 122 115 114 116 109 110 108 114 93 116 119 114 119 107 105 103
332 308 318 306 323 333 322 321 305 321 326 318 333 345 274 83 121 143 161 130 112 70 108 90 127 222 113 100 118 126 122 126 137 146 138 126 86 101 125 132 125 107 112 114 109
326 306 326 314 329 330 316 305 296 310 300 309 337 316 75 114 175 188 187 127 95 92 105 101 104 94 117 124 151 157 159 164 155 170 168 235 122 150 157 151 128 137 130 137 134
316 315 328 314 326 322 308 301 289 273 274 306 328 279 129 226 215 160 180 109 104 115 125 123 90 100 140 157 168 196 254 201 178 194 171 234 113 156 172 139 147 164 152 147 136
310 313 315 306 324 312 307 300 263 250 301 341 257 228 182 168 140 147 175 157 112 128 144 183 148 168 193 219 307 11 228 200 198 183 214 199 97 152 197 166 179 168 159 158 150
303 311 296 318 313 310 310 248 213 180 212 311 35 308 132 145 165 182 174 183 185 218 238 200 234 229 204 234 335 292 250 185 112 96 240 228 156 165 150 172 178 163 164 168 157
298 288 287 305 316 325 41 285 50 346 239 205 275 266 231 183 156 165 183 215 213 240 207 217 241 45 292 112 254 158 142 134 129 167 252 188 161 162 163 192 176 169 166 174 175
292 248 263 320 318 339 274 16 283 345 250 133 151 158 134 200 155 169 204 221 241 237 221 262 37 98 176 157 169 160 207 170 347 165 226 196 182 182 177 178 178 169 177 159 148
273 230 249 312 166 304 250 310 294 262 192 105 140 108 162 225 115 98 208 266 216 142 178 80 125 155 157 165 264 211 314 190 165 184 277 202 335 174 180 177 180 172 179 145 122
252 211 218 254 316 283 348 323 120 204 161 114 94 97 152 295 128 109 148 227 299 145 267 99 147 164 50 11 9 59 78 169 183 242 208 194 260 109 181 205 193 175 161 142 134
214 192 201 263 271 283 331 252 238 228 123 141 120 133 164 67 74 119 127 76 61 72 59 105 87 28 85 82 129 136 123 170 205 234 242 93 222 105 179 229 148 152 158 145 131
193 186 196 214 2 308 322 230 217 295 156 150 133 133 79 68 77 62 77 59 344 229 168 142 81 114 113 104 128 215 222 265 267 188 302 80 251 49 108 116 148 152 135 137 139
184 184 214 235 288 299 257 248 126 96 77 122 165 112 73 3 79 80 101 82 43 330 267 261 169 326 8 276 300 233 301 293 305 317 328 131 337 78 84 95 95 139 129 131 137
159 164 203 273 4 309 266 226 51 35 22 157 163 214 125 96 81 128 73 44 35 17 338 301 178 135 46 34 312 85 257 6 291 253 260 62 81 88 114 118 119 106 153 146 134
165 180 136 207 331 274 248 71 68 31 357 218 140 339 105 70 181 127 93 26 38 17 346 45 290 114 50 271 96 8 17 302 276 310 333 98 72 60 31 80 99 185 198 144 145
182 182 68 277 300 241 135 75 67 48 71 40 88 88 69 70 33 58 44 75 21 31 22 353 323 73 244 21 353 330 16 352 307 342 301 304 78 26 30 20 5 1 42 142 149
234 175 85 313 212 267 114 53 234 59 68 84 64 60 48 26 37 72 78 47 9 355 34 33 325 331 43 74 52 54 18 356 339 84 47 312 77 35 22 24 2 17 63 140 96
145 109 74 272 177 128 115 100 53 74 44 68 88 68 70 62 77 86 95 53 33 41 21 8 48 281 176 173 98 43 37 25 44 249 32 324 80 49 20 5 19 15 66 104 145
208 145 141 123 35 130 128 115 113 53 63 61 98 101 77 60 43 122 118 65 54 77 45 51 32 330 4 42 71 68 46 28 26 38 86 41 25 32 9 3 13 18 23 94 210
325 87 354 149 107 108 122 131 124 111 85 34 77 62 33 50 82 75 68 134 84 149 69 57 77 84 75 71 69 47 45 38 37 19 32 27 33 10 2 353 357 354 346 336 297
138 159 116 89 128 144 93 95 122 115 5 65 97 69 52 67 34 38 343 20 40 76 61 104 121 117 89 69 56 53 17 142 17 5 36 30 40 4 350 333 340 333 319 308 331
100 97 235 276 147 189 95 131 115 113 60 70 82 78 70 78 89 84 85 77 60 32 79 151 158 204 151 95 86 121 15 18 71 42 18 16 352 347 346 345 341 334 307 322 338